Flag for Austria Past Weather in Gerasdorf bei Wien, Lower Austria, Austria — Yesterday and Last 2 Weeks

Now
84 °F

Scattered clouds.


Feels Like: 86 °F
Forecast: 65 / 85 °F
Wind: 5 mph from Northwest

Location: Wien / Hohe Warte

Current Time: Jul 24, 2016 at 4:45:47 PM

Latest Report: Jul 24, 2016 at 4:00 PM


Visibility: 31 mi

Pressure: 30.00 "Hg

Humidity: 55%

Dew Point: 66 °F

Location of Gerasdorf bei WienLocation

Past Weather in Gerasdorf bei Wien — Graph

°F

Gerasdorf bei Wien Temperature Yesterday

Maximum temperature yesterday: 86 °F (at 4:00 PM)
Minimum temperature yesterday: 68 °F (at 6:00 AM)
Average temperature yesterday: 76 °F

High & Low Weather Summary for the Past Weeks

 TemperatureHumidityPressure
High92 °F (Jul 11, 2:00 PM)96% (Jul 23, 6:00 AM)30.22 "Hg (Jul 23, 6:00 AM)
Low55 °F (Jul 14, 6:00 AM)40% (Jul 10, 3:00 PM)29.76 "Hg (Jul 14, 7:00 AM)
Average71 °F68%30.00 "Hg
* Reported Jul 9 3:00 PM — Jul 24 3:00 PM, Gerasdorf bei Wien, Weather by CustomWeather, © 2016

Note: Actual official high and low records may vary slightly from our data, if they occured in-between our weather recording intervals... More about our weather records

Advertising

Gerasdorf bei Wien Weather History for the Previous 24 Hours

Scroll right to see more
 ConditionsComfort  
Time TempWeatherWind HumidityBarometerVisibility
3:00 PM
Sun, Jul 24
82 °FPartly sunny.5 mph61%30.01 "Hg31 mi
2:00 PM81 °FPartly sunny.3 mph58%30.02 "Hg31 mi
1:00 PM80 °FPartly sunny.5 mph62%30.03 "Hg31 mi
12:00 PM79 °FScattered clouds.5 mph64%30.03 "Hg25 mi
11:00 AM77 °FPartly sunny.5 mph68%30.04 "Hg19 mi
10:00 AM76 °FScattered clouds.5 mph72%30.03 "Hg19 mi
9:00 AM75 °FScattered clouds.3 mph75%30.03 "Hg19 mi
8:00 AM71 °FPassing clouds.5 mph83%30.03 "Hg19 mi
7:00 AM68 °FPartly sunny.5 mph90%30.02 "Hg19 mi
6:00 AM68 °FPartly sunny.5 mph91%30.02 "Hg16 mi
5:00 AM68 °FMild.3 mph93%30.03 "HgN/A
4:00 AM69 °FFog.2 mph91%30.02 "HgN/A
3:00 AM71 °FFog.7 mph86%30.01 "HgN/A
2:00 AM72 °FMild.1 mph83%29.98 "HgN/A
1:00 AM72 °FMild.1 mph81%29.98 "HgN/A
12:00 AM73 °FMild.1 mph81%29.98 "HgN/A
11:00 PM
Sat, Jul 23
74 °FPassing clouds.1 mph78%29.97 "Hg12 mi
10:00 PM76 °FMild.1 mph72%29.97 "HgN/A
9:00 PM78 °FWarm.2 mph64%29.96 "HgN/A
8:00 PM81 °FScattered clouds.2 mph54%29.95 "Hg25 mi
7:00 PM83 °FScattered clouds.5 mph54%29.95 "Hg25 mi
6:00 PM85 °FWarm.3 mph47%29.95 "HgN/A
5:00 PM85 °FPartly sunny.3 mph44%29.96 "Hg25 mi
4:00 PM86 °FPartly sunny.2 mph47%29.97 "Hg19 mi
Weather by CustomWeather, © 2016

See weather overviewHow to use our weather pages